Location: Alando
(42.3054°N, 9.2895°E)
Time: 11:29:38
(UTC+00:00)

USA 234 - Pass Details

Date: 09 April 2020
Orbit: 1102 x 1106 km, 123.0° (Epoch: 14 May)

Event Time Altitude Azimuth Distance (km) Brightness Sun altitude
Rises 19:51:57 0° 51° (NE) 3,925 6.0 -20.3°
Reaches altitude 10° 19:54:32 10° 57° (ENE) 2,964 5.3 -20.7°
Maximum altitude 20:00:52 51° 132° (SE) 1,366 3.3 -21.7°
Drops below altitude 10° 20:07:11 10° 207° (SSW) 2,953 5.4 -22.6°
Sets 20:09:44 0° 212° (SSW) 3,909 6.1 -23.0°
